This is the latest recevied weather packets stored in our database for station/object N9WHM. If no packets are shown the sender has not sent any weather packets the latest 1 day(s).
| Time | Temp. | Humidity | Pressure | Rain* | Wind** | Luminosity | Snow |
|---|---|---|---|---|---|---|---|
| 1778000494 | 11.67° C | 36% | 1014 hPa | 0 mm | 2.68 m/s, 334° | 690 W/m² | - |
| 1778000189 | 11.67° C | 36% | 1013.8 hPa | 0 mm | 1.79 m/s, 40° | 381 W/m² | - |
| 1777999886 | 12.22° C | 37% | 1013.7 hPa | 0 mm | 2.68 m/s, 11° | 374 W/m² | - |
| 1777999581 | 12.22° C | 38% | 1013.6 hPa | 0 mm | 2.24 m/s, 355° | 530 W/m² | - |
| 1777999279 | 12.22° C | 37% | 1013.5 hPa | 0 mm | 2.24 m/s, 45° | 574 W/m² | - |
| 1777998977 | 12.22° C | 37% | 1013.5 hPa | 0 mm | 1.79 m/s, 359° | 574 W/m² | - |
| 1777998674 | 12.22° C | 37% | 1013.5 hPa | 0 mm | 3.58 m/s, 333° | 664 W/m² | - |
| 1777998372 | 11.67° C | 37% | 1013.5 hPa | 0 mm | 4.92 m/s, 5° | 469 W/m² | - |
| 1777998069 | 11.67° C | 38% | 1013.5 hPa | 0 mm | 2.68 m/s, 9° | 575 W/m² | - |
| 1777997766 | 11.11° C | 37% | 1013.3 hPa | 0 mm | 1.79 m/s, 327° | 467 W/m² | - |
| 1777997464 | 11.11° C | 37% | 1013.6 hPa | 0 mm | 1.34 m/s, 304° | 429 W/m² | - |
| 1777997161 | 11.11° C | 38% | 1013.2 hPa | 0 mm | 1.34 m/s, 91° | 320 W/m² | - |
| 1777996858 | 11.11° C | 38% | 1013.5 hPa | 0 mm | 2.24 m/s, 28° | 307 W/m² | - |
| 1777996554 | 11.67° C | 37% | 1013.5 hPa | 0 mm | 1.79 m/s, 337° | 331 W/m² | - |
| 1777996251 | 11.67° C | 35% | 1013.6 hPa | 0 mm | 0.89 m/s, 352° | 465 W/m² | - |
| 1777995947 | 11.11° C | 37% | 1013.5 hPa | 0 mm | 2.68 m/s, 40° | 415 W/m² | - |
| 1777995643 | 11.67° C | 37% | 1013.4 hPa | 0 mm | 1.79 m/s, 355° | 373 W/m² | - |
| 1777995341 | 11.67° C | 38% | 1013.3 hPa | 0 mm | 2.24 m/s, 13° | 298 W/m² | - |
| 1777995038 | 11.11° C | 41% | 1013.3 hPa | 0 mm | 1.79 m/s, 95° | 300 W/m² | - |
| 1777994735 | 11.67° C | 40% | 1013.2 hPa | 0 mm | 2.24 m/s, 30° | 539 W/m² | - |
| 1777994430 | 11.11° C | 42% | 1013 hPa | 0 mm | 0.45 m/s, 76° | 411 W/m² | - |
| 1777994125 | 11.11° C | 40% | 1013.2 hPa | 0 mm | 2.68 m/s, 9° | 318 W/m² | - |
| 1777993823 | 10.56° C | 41% | 1013.1 hPa | 0 mm | 0.89 m/s, 12° | 445 W/m² | - |
| 1777993519 | 11.11° C | 41% | 1013.1 hPa | 0 mm | 2.68 m/s, 6° | 332 W/m² | - |
| 1777993215 | 10.56° C | 42% | 1013 hPa | 0 mm | 1.34 m/s, 62° | 250 W/m² | - |
* Rain latest hour (hover to see other rain measurements)
** Current wind speed in m/s (hover to see current wind gust speed)